This demonstration page uses our WeatherBlox Daily Observations layout. Learn more.

Left ArrowRight Arrow

36.17497, -115.13722

Hourly Observations for June 19, 2019

Temp ( °F °C ) Dew Point ( °F °C ) Humidity (%) Winds ( mph kmh ) Pressure ( in mb ) Visibility ( mi km ) Precip ( " mm )
12:53 am 00:53 Clear 85 29.4 43 6.1 23 23 Calm 29.83 1010 10 16 0.00 0.00
1:53 am 01:53 Clear 82 27.8 45 7.2 27 27 NNW 5 7 29.82 1010 10 16 0.00 0.00
2:53 am 02:53 Clear 81 27.2 37 2.8 21 21 NNE 7 11 29.81 1010 10 16 0.00 0.00
3:53 am 03:53 Clear 79 26.1 36 2.2 21 21 NNW 7 11 29.83 1010 10 16 0.00 0.00
4:53 am 04:53 Clear 77 25 39 3.9 26 26 NNW 7 11 29.83 1010 10 16 0.00 0.00
5:53 am 05:53 Sunny 76 24.4 39 3.9 26 26 N 6 9 29.85 1011 10 16 0.00 0.00
6:53 am 06:53 Sunny 79 26.1 41 5 26 26 N 5 7 29.86 1011 10 16 0.00 0.00
7:53 am 07:53 Sunny 85 29.4 34 1.1 16 16 NNE 6 9 29.87 1012 10 16 0.00 0.00
8:53 am 08:53 Sunny 87 30.6 35 1.7 16 16 SE 3 6 29.88 1012 10 16 0.00 0.00
9:53 am 09:53 Sunny 90 32.2 35 1.7 14 14 Calm 29.87 1012 10 16 0.00 0.00
10:53 am 10:53 Sunny 93 33.9 35 1.7 13 13 Calm 29.86 1011 10 16 0.00 0.00
11:53 am 11:53 Sunny 97 36.1 36 2.2 12 12 VRB 5 7 29.84 1010 10 16 0.00 0.00
12:53 pm 12:53 Sunny 99 37.2 36 2.2 11 11 Calm 29.81 1009 10 16 0.00 0.00
1:53 pm 13:53 Sunny 103 39.4 35 1.7 9 9 SSE 15 24 29.77 1008 10 16 0.00 0.00
2:53 pm 14:53 Sunny 103 39.4 36 2.2 10 10 SSE 14 22 29.75 1007 10 16 0.00 0.00
3:53 pm 15:53 Sunny 104 40 37 2.8 10 10 undefined N/A 29.72 1006 10 16 0.00 0.00
4:53 pm 16:53 Sunny 103 39.4 37 2.8 10 10 VRB 3 6 29.70 1006 10 16 0.00 0.00
5:53 pm 17:53 Sunny 103 39.4 36 2.2 10 10 SW 12 19 29.68 1005 10 16 0.00 0.00
6:53 pm 18:53 Sunny 102 38.9 35 1.7 10 10 W 12 19 29.68 1005 10 16 0.00 0.00
7:53 pm 19:53 Sunny 100 37.8 34 1.1 10 10 W 13 20 29.68 1005 10 16 0.00 0.00
8:53 pm 20:53 Clear 98 36.7 36 2.2 11 11 WSW 6 9 29.69 1005 10 16 0.00 0.00
9:53 pm 21:53 Clear 95 35 36 2.2 13 13 SSW 10 17 29.71 1006 10 16 0.00 0.00
10:53 pm 22:53 Clear 93 33.9 32 0 11 11 S 12 19 29.72 1006 10 16 0.00 0.00
11:53 pm 23:53 Clear 92 33.3 30 -1.1 11 11 S 14 22 29.71 1006 10 16 0.00 0.00

Powered by AerisWeather